Probability
0 0 0 0 0 0 0 0 0 0 0 0 0 0 0 0 0 0 0 0 0 0 10 97 97 90 87 87 74 77 77 90 84 81 77 61 35 29 19 10 10 19 23 19 10 6 3 3 0
0 0 0 0 0 0 0 0 0 0 0 0 0 0 0 0 0 0 0 0 0 0 6 81 97 94 90 87 77 74 81 81 87 77 74 55 39 32 19 19 10 13 26 19 6 3 3 3 0
0 0 0 0 0 0 0 0 0 0 0 0 0 0 0 0 0 0 0 0 0 0 6 55 100 94 90 87 81 81 81 81 87 77 71 55 48 35 26 19 26 39 32 10 3 3 0 0 0
0 0 0 0 0 0 0 0 0 0 0 0 0 0 0 0 0 0 0 0 0 0 6 39 97 94 90 90 81 77 71 74 77 84 74 65 48 39 29 29 39 35 23 6 3 0 0 0 0
0 0 0 0 0 0 0 0 0 0 0 0 0 0 0 0 0 0 0 0 0 0 3 32 94 90 90 90 87 74 74 74 84 81 77 68 42 35 32 35 29 23 6 3 3 0 0 0 0
0 0 0 0 0 0 0 0 0 0 0 0 0 0 0 0 0 0 0 0 0 0 3 26 81 81 87 87 81 68 77 77 87 84 81 68 58 42 29 29 16 13 0 3 0 0 0 0 0
0 0 0 0 0 0 0 0 0 0 0 0 0 0 0 0 0 0 0 0 0 0 0 10 35 48 58 55 55 58 74 77 81 87 84 71 65 52 39 29 13 13 6 3 3 0 0 0 0
0 0 0 0 0 0 0 0 0 0 0 0 0 0 0 0 0 0 0 0 0 0 0 6 13 10 10 10 32 26 32 52 65 61 42 19 19 29 32 10 6 10 3 0 3 0 0 0 0
0 0 0 0 0 0 0 0 0 0 0 0 0 0 0 0 0 0 0 0 0 3 0 0 3 0 0 3 10 3 13 16 23 26 10 0 0 0 0 0 0 0 3 0 0 0 0 0 0
0 0 0 0 0 0 0 0 0 0 0 0 0 0 0 0 0 0 0 0 0 3 0 0 0 0 0 0 0 0 0 0 0 0 0 0 0 0 0 0 0 0 0 0 0 0 0 0 0
0 0 0 0 0 0 0 0 0 0 0 0 0 0 0 0 0 0 0 0 0 0 0 0 0 0 0 0 0 0 0 0 0 0 0 0 0 0 0 0 0 0 0 0 0 0 0 0 0
0 0 0 0 0 0 0 0 0 0 0 0 0 0 0 0 0 0 0 0 0 0 0 0 0 0 0 0 0 0 0 0 0 0 0 0 0 0 0 0 0 0 0 0 0 0 0 0 0
0 0 0 0 0 0 0 0 0 0 0 0 0 0 0 0 0 0 0 0 0 0 0 0 0 0 0 0 0 0 0 0 0 0 0 0 0 0 0 0 0 0 0 0 0 0 0 0 0
0 0 0 0 0 0 0 0 0 0 0 0 0 0 0 0 0 0 0 0 0 0 0 0 0 0 0 0 0 0 0 0 0 0 0 0 0 0 0 0 0 0 0 0 0 0 0 0 0
0 0 0 0 0 0 0 0 0 0 0 0 0 0 0 0 0 0 0 0 0 0 0 0 0 0 0 0 0 0 0 0 0 0 0 0 0 0 0 0 0 0 0 0 0 0 0 0 0
0 0 0 0 0 0 0 0 0 0 0 0 0 0 0 0 0 0 0 0 0 0 0 0 0 0 0 0 0 0 0 0 0 0 0 0 0 0 0 0 0 0 0 0 0 0 0 0 0
0 0 0 0 0 0 0 0 0 0 0 0 0 0 0 0 0 0 0 0 0 0 0 0 0 0 0 0 0 0 0 0 0 0 0 0 0 0 0 0 0 0 0 0 0 0 0 0 0
0 0 0 0 0 0 0 0 0 0 0 0 0 0 0 0 0 0 0 0 0 0 0 0 0 0 0 0 0 0 0 0 0 0 0 0 0 0 0 0 0 0 0 0 0 0 0 0 0
0 0 0 0 0 0 0 0 0 0 0 0 0 0 0 0 0 0 0 0 0 0 0 0 0 0 0 0 0 0 0 0 0 0 0 0 0 0 0 0 0 0 0 0 0 0 0 0 0
0 0 0 0 0 0 0 0 0 0 0 0 0 0 0 0 0 0 0 0 0 0 0 0 0 0 0 0 0 0 0 0 0 0 0 0 0 0 0 0 0 0 0 0 0 0 0 0 0
0 0 0 0 0 0 0 0 0 0 0 0 0 0 0 0 0 0 0 0 0 0 0 0 0 0 0 0 0 0 0 0 0 0 0 0 0 0 0 0 0 0 0 0 0 0 0 0 0
0 0 0 0 0 0 0 0 0 0 0 0 0 0 0 0 0 0 0 0 0 0 0 0 0 0 0 0 0 0 0 0 0 0 0 0 0 0 0 0 0 0 0 0 0 0 0 0 0
0 0 0 0 0 0 0 0 0 0 0 0 0 0 0 0 0 0 0 0 0 0 0 0 0 0 0 0 0 0 0 0 0 0 0 0 0 0 0 0 0 0 0 0 0 0 0 0 0
0 0 0 0 0 0 0 0 0 0 0 0 0 0 0 0 0 0 0 0 0 0 0 0 0 0 0 0 0 0 0 0 0 0 0 0 0 0 0 0 0 0 0 0 0 0 0 0 0
0 0 0 0 0 0 0 0 0 0 0 0 0 0 0 0 0 0 0 0 0 0 0 0 0 0 0 0 0 0 0 0 0 0 0 0 0 0 0 0 0 0 0 0 0 0 0 0 0
0 0 0 0 0 0 0 0 0 0 0 0 0 0 0 0 0 0 0 0 0 0 0 0 0 0 0 0 0 0 0 0 0 0 0 0 0 0 0 0 0 0 0 0 0 0 0 0 0
0 0 0 0 0 0 0 0 0 0 0 0 0 0 0 0 0 0 0 0 0 0 0 0 0 0 0 0 0 0 0 0 0 0 0 0 0 0 0 0 0 0 0 0 0 0 0 0 0
0 0 0 0 0 0 0 0 0 0 0 0 0 0 0 0 0 0 0 0 0 0 0 0 0 0 0 0 0 0 0 0 0 0 0 0 0 0 0 0 0 0 0 0 0 0 0 0 0
0 0 0 0 0 0 0 0 0 0 0 0 0 0 0 0 0 0 0 0 0 0 0 0 0 0 0 0 0 0 0 0 0 0 0 0 0 0 0 0 0 0 0 0 0 0 0 0 0
0 0 0 0 0 0 0 0 0 0 0 0 0 0 0 0 0 0 0 0 0 0 0 0 0 0 0 0 0 0 0 0 0 0 0 0 0 0 0 0 0 0 0 0 0 0 0 0 0
Height
5796 5798 5801 5803 5806 5807 5810 5814 5817 5820 5822 5824 5825 5827 5830 5833 5835 5839 5839 5840 5842 5843 5845 5846 5848 5849 5850 5851 5853 5854 5856 5858 5860 5861 5863 5864 5865 5867 5868 5869 5870 5871 5872 5873 5873 5874 5875 5875 5875
5788 5791 5794 5796 5797 5800 5804 5807 5809 5811 5814 5816 5818 5821 5823 5826 5828 5831 5832 5834 5836 5838 5840 5841 5843 5844 5846 5847 5848 5850 5851 5853 5855 5857 5859 5860 5862 5863 5864 5865 5867 5868 5869 5870 5871 5872 5872 5873 5873
5781 5783 5786 5788 5790 5794 5797 5799 5800 5802 5805 5808 5810 5813 5816 5819 5821 5824 5826 5828 5830 5832 5834 5836 5838 5839 5841 5842 5844 5845 5847 5848 5850 5852 5854 5856 5857 5859 5860 5862 5863 5865 5866 5867 5868 5869 5870 5870 5871
5774 5776 5778 5781 5784 5787 5788 5789 5792 5794 5796 5799 5802 5805 5808 5811 5814 5817 5819 5821 5824 5826 5828 5830 5832 5834 5835 5837 5839 5840 5841 5843 5845 5847 5849 5851 5852 5854 5856 5857 5859 5861 5862 5864 5865 5866 5867 5868 5868
5766 5768 5771 5773 5776 5778 5779 5780 5783 5785 5787 5791 5794 5797 5800 5803 5806 5808 5811 5814 5817 5819 5821 5823 5825 5827 5829 5831 5833 5834 5836 5838 5839 5841 5843 5845 5847 5849 5851 5853 5854 5856 5858 5860 5861 5863 5864 5864 5865
5759 5761 5764 5766 5768 5769 5770 5772 5774 5776 5779 5781 5784 5788 5791 5794 5797 5800 5803 5806 5809 5811 5814 5816 5818 5821 5822 5824 5826 5828 5830 5832 5833 5835 5837 5839 5841 5843 5845 5847 5849 5851 5854 5855 5857 5858 5860 5861 5862
5751 5753 5755 5758 5760 5761 5762 5763 5765 5767 5770 5772 5774 5778 5782 5784 5787 5791 5794 5797 5800 5803 5806 5808 5811 5813 5815 5817 5819 5821 5823 5825 5827 5829 5831 5833 5835 5837 5839 5841 5844 5846 5848 5850 5852 5854 5855 5857 5858
5742 5746 5748 5749 5750 5752 5753 5754 5756 5758 5761 5763 5765 5768 5772 5775 5777 5780 5784 5788 5791 5794 5797 5799 5802 5804 5807 5809 5811 5814 5816 5818 5820 5822 5824 5826 5828 5831 5833 5835 5838 5840 5843 5845 5847 5849 5850 5852 5853
5734 5738 5739 5740 5741 5743 5744 5746 5748 5750 5752 5754 5755 5757 5760 5763 5766 5770 5773 5777 5781 5784 5787 5790 5792 5795 5798 5800 5803 5805 5808 5810 5812 5814 5817 5819 5822 5824 5826 5829 5832 5834 5836 5839 5841 5843 5845 5847 5848
5726 5728 5730 5731 5732 5734 5735 5736 5738 5740 5743 5744 5745 5746 5748 5751 5755 5758 5762 5766 5770 5773 5776 5780 5783 5786 5789 5792 5794 5797 5799 5802 5805 5807 5809 5812 5814 5817 5820 5822 5825 5827 5830 5832 5835 5837 5839 5841 5842
5717 5719 5720 5721 5722 5724 5725 5727 5728 5730 5734 5733 5734 5736 5737 5740 5743 5746 5750 5754 5758 5762 5765 5769 5773 5776 5779 5782 5785 5788 5791 5794 5796 5799 5802 5804 5807 5810 5813 5815 5818 5821 5823 5826 5828 5831 5833 5835 5837
5708 5709 5710 5711 5712 5714 5715 5716 5718 5720 5722 5721 5722 5724 5726 5728 5731 5734 5738 5742 5746 5750 5754 5758 5761 5765 5768 5772 5775 5778 5782 5785 5788 5791 5793 5796 5799 5802 5805 5808 5811 5813 5816 5818 5821 5824 5826 5828 5830
5699 5700 5701 5701 5702 5703 5704 5705 5706 5709 5708 5708 5709 5712 5714 5716 5719 5721 5724 5728 5732 5737 5742 5746 5749 5754 5757 5761 5765 5768 5772 5775 5779 5782 5785 5788 5791 5795 5798 5800 5803 5806 5809 5811 5814 5816 5819 5822 5824
5689 5691 5691 5691 5692 5693 5694 5695 5695 5697 5693 5695 5697 5699 5701 5703 5705 5708 5711 5715 5718 5723 5728 5732 5737 5742 5746 5750 5754 5758 5762 5765 5769 5773 5776 5780 5783 5786 5790 5793 5795 5798 5801 5804 5806 5809 5812 5815 5817
5680 5682 5682 5681 5681 5682 5684 5686 5683 5681 5681 5683 5684 5686 5687 5689 5691 5694 5697 5700 5704 5709 5713 5718 5724 5729 5734 5738 5743 5747 5751 5755 5759 5764 5767 5771 5775 5778 5782 5784 5787 5790 5793 5795 5798 5801 5804 5807 5810
5672 5673 5673 5673 5672 5672 5675 5676 5671 5668 5669 5670 5671 5672 5674 5676 5678 5680 5683 5686 5689 5694 5699 5704 5710 5716 5721 5726 5731 5736 5740 5745 5750 5754 5758 5762 5766 5769 5773 5776 5779 5781 5784 5787 5790 5793 5796 5799 5801
5665 5665 5665 5664 5663 5663 5663 5665 5662 5657 5657 5658 5658 5659 5660 5662 5664 5666 5669 5672 5676 5680 5686 5691 5696 5702 5708 5713 5719 5724 5729 5734 5739 5744 5748 5753 5757 5760 5764 5767 5770 5773 5775 5778 5782 5785 5788 5790 5793
5658 5658 5657 5657 5656 5655 5654 5654 5652 5649 5647 5647 5647 5647 5648 5650 5652 5653 5655 5659 5663 5667 5672 5677 5683 5689 5695 5700 5706 5712 5718 5724 5729 5734 5739 5743 5747 5751 5754 5757 5761 5764 5767 5770 5773 5776 5779 5781 5784
5651 5651 5651 5650 5649 5648 5647 5646 5645 5642 5640 5639 5638 5638 5638 5639 5640 5641 5643 5646 5649 5653 5658 5664 5670 5676 5682 5688 5695 5701 5707 5713 5718 5724 5729 5733 5738 5741 5745 5748 5751 5755 5758 5761 5764 5766 5769 5772 5774
5646 5646 5645 5645 5644 5643 5642 5641 5639 5636 5635 5634 5632 5631 5631 5631 5631 5632 5633 5635 5639 5642 5647 5652 5658 5664 5671 5677 5684 5690 5696 5702 5708 5713 5719 5724 5728 5732 5735 5739 5742 5746 5749 5752 5754 5757 5760 5762 5765
5642 5642 5642 5642 5641 5639 5639 5638 5636 5633 5631 5629 5628 5626 5625 5624 5624 5624 5626 5628 5630 5633 5637 5642 5648 5654 5661 5667 5673 5680 5686 5692 5698 5704 5709 5714 5718 5722 5726 5729 5733 5736 5740 5743 5746 5748 5750 5753 5756
5639 5639 5639 5638 5638 5637 5637 5635 5634 5631 5629 5627 5625 5623 5621 5620 5619 5619 5620 5622 5624 5627 5630 5635 5640 5646 5652 5658 5665 5671 5677 5684 5689 5694 5699 5704 5709 5713 5717 5720 5723 5727 5730 5733 5736 5738 5741 5743 5745
5637 5637 5637 5636 5636 5636 5635 5633 5633 5630 5628 5625 5623 5621 5618 5617 5616 5615 5616 5618 5620 5623 5626 5630 5635 5640 5645 5651 5657 5663 5669 5675 5680 5685 5690 5695 5700 5704 5707 5711 5714 5717 5720 5723 5726 5728 5731 5733 5736
5635 5636 5636 5635 5635 5636 5634 5633 5632 5629 5627 5625 5622 5620 5617 5616 5615 5615 5615 5617 5619 5621 5624 5628 5632 5636 5641 5646 5651 5657 5662 5667 5672 5677 5682 5686 5691 5695 5698 5701 5704 5708 5710 5713 5716 5718 5721 5723 5725
5635 5636 5636 5636 5635 5635 5634 5632 5632 5629 5627 5625 5623 5620 5618 5617 5616 5616 5616 5618 5619 5622 5624 5627 5631 5634 5638 5643 5647 5652 5657 5661 5666 5670 5674 5678 5682 5686 5689 5692 5695 5698 5701 5703 5706 5708 5710 5712 5715
5635 5636 5637 5637 5636 5635 5634 5632 5632 5630 5628 5626 5625 5623 5621 5619 5619 5619 5619 5620 5621 5623 5625 5628 5631 5634 5637 5641 5645 5649 5653 5656 5660 5663 5667 5671 5674 5677 5680 5683 5686 5688 5691 5693 5695 5698 5700 5702 5704
5635 5635 5637 5637 5636 5636 5635 5635 5633 5632 5630 5629 5627 5626 5625 5623 5622 5622 5622 5623 5624 5625 5628 5630 5632 5634 5637 5640 5643 5646 5649 5652 5655 5658 5661 5664 5666 5669 5672 5675 5677 5679 5681 5683 5685 5687 5689 5690 5692
5637 5637 5638 5638 5638 5637 5637 5636 5635 5634 5633 5632 5630 5629 5628 5627 5626 5626 5626 5626 5627 5628 5630 5632 5633 5635 5637 5639 5642 5644 5647 5649 5651 5654 5656 5658 5660 5662 5664 5666 5668 5670 5672 5674 5675 5676 5678 5679 5680
5640 5640 5640 5640 5640 5639 5639 5640 5637 5636 5635 5634 5633 5632 5631 5630 5630 5630 5630 5630 5630 5631 5632 5633 5634 5636 5637 5639 5641 5643 5645 5646 5648 5649 5651 5652 5654 5656 5657 5658 5659 5660 5662 5663 5664 5665 5666 5667 5668
5642 5642 5642 5642 5642 5641 5640 5644 5639 5639 5638 5637 5636 5635 5634 5633 5633 5632 5632 5633 5633 5633 5634 5635 5635 5637 5638 5639 5640 5641 5642 5643 5644 5645 5646 5647 5648 5649 5650 5651 5651 5651 5651 5652 5653 5653 5654 5655 5655
Wind_Speed
39 40 41 42 43 44 42 40 38 36 36 36 35 35 34 33 32 32 31 29 28 27 27 26 26 26 26 26 26 26 26 26 26 25 24 23 22 21 19 17 16 14 13 12 11 11 11 10 10
38 39 41 42 44 44 42 41 40 39 39 38 38 37 37 36 35 33 33 32 30 29 29 28 27 27 28 28 28 27 28 28 28 28 27 26 24 23 22 21 19 17 16 14 13 12 12 12 11
37 38 40 41 43 42 42 41 42 42 42 41 41 40 40 39 38 36 35 34 33 32 31 30 30 29 29 29 30 30 29 29 29 29 29 29 27 26 25 24 22 20 19 17 16 15 14 13 13
36 37 39 40 40 40 41 42 43 43 44 44 43 43 43 42 41 39 38 37 36 35 34 33 32 32 31 31 31 32 32 31 31 31 31 31 30 28 27 26 25 23 21 20 18 17 16 15 14
36 37 38 38 38 38 40 42 43 44 45 45 45 45 45 44 43 42 41 40 39 38 37 36 35 34 33 33 33 33 33 33 33 33 33 33 32 31 30 29 27 26 24 22 21 19 18 17 16
37 37 37 37 37 38 40 42 43 44 45 46 47 47 46 46 46 45 44 43 42 41 40 39 38 37 36 35 35 35 35 35 35 35 35 34 34 34 33 31 30 28 27 25 23 22 21 20 18
38 38 38 37 37 39 40 42 43 44 44 46 48 48 48 48 48 48 47 45 44 43 43 42 41 40 39 38 37 36 36 37 37 37 37 36 35 35 35 34 32 31 29 28 26 24 23 22 21
39 39 39 38 39 40 41 43 44 44 45 46 48 50 49 50 50 50 49 48 47 46 45 44 43 42 41 40 39 38 38 37 38 39 38 38 37 37 37 36 34 33 31 30 29 27 25 24 23
40 41 40 40 41 42 43 44 45 46 47 47 49 50 51 51 52 53 52 51 50 49 48 47 45 44 43 41 40 39 39 39 39 39 40 40 39 38 37 37 37 35 34 32 31 29 28 26 25
42 42 42 42 43 44 44 45 46 47 47 48 50 51 53 53 54 54 54 54 53 52 51 50 48 46 44 43 42 42 41 40 40 40 40 40 41 40 39 38 38 37 36 34 33 31 30 28 27
43 43 43 44 45 45 46 47 47 48 48 50 52 53 54 55 55 56 56 56 56 55 54 52 51 49 47 46 45 44 44 43 42 41 41 41 41 41 40 39 39 39 38 36 35 34 32 31 29
43 43 44 45 46 46 47 48 49 50 50 52 54 55 56 56 57 57 58 58 57 57 56 55 54 52 50 49 48 47 45 45 44 43 42 42 42 41 41 41 40 40 40 38 37 36 35 33 32
43 43 44 45 46 47 48 49 50 50 53 54 55 56 56 57 58 59 60 59 59 58 58 57 56 55 54 52 50 48 47 47 45 44 44 44 43 41 41 41 41 42 41 39 39 38 37 36 34
42 42 43 45 46 47 48 49 50 50 53 55 56 57 58 59 60 60 61 61 60 60 59 59 58 57 55 54 53 50 48 47 46 45 44 44 44 43 42 42 42 43 43 42 41 40 39 38 36
40 41 41 43 44 45 46 46 49 51 53 54 55 57 58 59 60 61 61 62 62 61 60 60 59 58 57 56 55 52 50 48 48 46 44 44 44 44 44 44 43 43 44 44 44 42 41 40 38
37 37 38 40 41 42 43 43 46 49 51 51 52 53 55 56 58 59 60 61 61 61 61 60 59 59 58 57 55 53 52 51 49 47 45 44 44 44 44 44 45 44 45 46 45 44 43 42 40
32 33 35 36 38 39 40 39 41 45 47 47 48 49 50 51 53 55 57 59 59 60 60 60 59 59 58 58 57 55 54 53 52 49 47 45 45 45 45 46 46 46 47 46 46 45 44 43 43
30 30 31 33 34 35 35 35 36 38 39 40 41 42 43 44 46 48 51 54 55 57 58 59 58 58 58 58 57 56 55 55 54 51 49 47 47 47 46 47 48 49 48 47 47 46 46 45 45
25 26 26 27 28 28 28 27 28 29 29 30 31 33 35 37 38 41 43 45 49 52 54 56 57 57 57 57 57 55 55 55 54 53 51 51 50 49 47 48 48 48 48 47 47 49 48 47 47
19 20 21 22 23 21 20 19 20 21 21 21 22 24 26 28 31 33 36 38 41 44 47 50 52 54 54 55 54 55 54 54 54 54 53 52 51 50 48 47 48 48 47 47 48 49 48 47 47
17 17 17 18 17 17 16 15 15 16 17 17 17 18 18 20 23 25 28 31 33 37 40 43 46 49 50 51 51 51 52 51 51 51 51 51 49 49 49 48 48 48 47 47 48 48 48 48 47
14 14 14 13 12 12 12 11 10 11 11 12 12 12 13 14 16 17 21 23 26 30 32 36 38 40 43 45 47 48 48 48 47 48 49 50 49 48 47 48 48 48 47 48 49 48 47 48 48
10 11 10 10 9 8 9 8 7 8 8 8 7 7 7 8 8 9 12 15 17 21 24 27 31 33 35 37 40 43 44 45 45 45 46 47 47 47 46 46 46 47 47 48 48 49 49 49 49
8 7 7 6 6 6 6 6 5 6 5 6 6 5 3 2 2 3 5 8 10 12 15 18 22 26 28 31 33 36 37 39 41 42 43 44 44 46 46 45 45 46 47 48 49 48 48 50 51
4 4 4 4 5 4 4 4 3 4 4 3 5 6 5 3 2 2 3 5 6 7 9 11 15 19 21 24 27 29 30 32 34 37 39 39 41 42 44 44 44 45 46 47 49 49 49 49 51
2 2 2 2 2 1 1 2 4 5 5 5 6 7 7 6 5 5 5 6 5 6 7 8 9 12 14 16 20 24 26 26 28 31 33 36 38 40 42 43 43 45 45 46 49 50 51 51 52
2 2 2 2 2 3 5 5 5 6 7 7 7 8 8 8 8 7 6 6 6 6 7 6 7 9 11 13 15 18 20 23 25 27 28 30 32 36 39 41 41 42 43 45 48 49 50 50 50
6 6 5 5 5 5 6 5 5 6 7 8 8 9 9 8 8 8 8 8 8 7 6 6 6 7 9 11 13 14 17 19 21 23 25 27 29 31 34 36 37 40 42 44 46 47 48 48 48
7 6 6 5 5 6 6 6 6 7 7 8 8 8 8 7 6 6 6 6 6 5 4 4 3 5 7 9 11 13 14 15 17 21 23 26 28 30 31 34 36 38 41 43 44 45 46 48 49
7 7 6 6 6 6 7 7 7 7 8 8 8 8 7 6 6 5 4 4 3 3 3 2 1 3 5 8 10 12 14 16 18 20 23 25 27 29 30 32 34 36 37 40 42 43 45 47 48
Wind_Direction
256 255 255 254 254 254 255 257 257 255 253 252 251 250 251 251 252 254 257 257 257 258 259 259 259 259 259 259 258 256 255 255 254 252 251 250 250 251 253 256 259 261 263 266 270 275 281 285 288
257 257 255 255 255 256 256 257 257 255 254 253 252 252 251 251 252 253 255 256 256 257 258 258 258 258 259 259 259 258 257 255 254 253 252 251 250 250 251 253 256 258 259 261 264 268 273 277 281
258 257 257 256 256 257 258 256 256 255 254 253 252 252 251 251 251 251 252 254 255 256 257 257 258 258 258 258 258 258 258 256 254 253 252 251 250 250 250 251 253 255 257 259 261 263 267 271 274
258 258 258 258 258 258 258 257 256 255 254 254 253 252 252 252 252 252 251 252 254 255 256 257 258 258 258 258 258 258 258 257 255 253 252 251 250 249 250 250 251 252 254 256 258 260 263 265 268
259 259 259 259 259 258 257 257 256 256 255 254 253 253 253 252 252 252 252 252 252 254 255 256 257 258 258 257 257 257 257 257 255 254 252 251 250 249 249 249 249 250 252 253 255 257 259 261 263
259 260 260 260 259 258 258 258 257 256 256 255 254 254 254 253 252 252 253 253 252 253 253 255 256 257 257 257 257 256 256 256 255 254 252 251 249 248 248 248 249 250 250 251 252 253 256 258 259
260 260 262 262 260 259 258 258 258 257 257 256 255 254 254 253 253 253 252 252 252 253 253 254 255 255 255 256 256 255 254 254 254 253 252 251 249 248 247 248 248 249 249 250 251 251 253 255 256
260 261 262 262 262 260 260 259 259 258 258 258 257 256 254 254 253 253 252 252 252 252 252 253 253 253 254 254 254 254 254 253 253 252 251 250 248 247 247 247 247 248 248 249 249 249 251 252 254
261 262 263 263 262 262 262 262 261 260 259 259 258 258 256 255 253 253 252 251 251 251 251 251 250 251 251 251 251 251 251 251 251 251 250 249 248 247 247 246 246 247 247 247 248 248 249 250 251
261 262 263 263 263 263 263 263 262 262 261 260 259 258 257 256 254 253 252 251 250 250 250 250 250 249 248 248 249 250 249 249 250 250 249 249 248 247 246 246 246 246 247 247 247 247 248 249 249
261 262 263 264 264 265 264 264 264 263 263 261 259 258 258 257 256 254 253 251 250 250 249 248 248 247 247 246 247 248 248 248 248 248 248 248 248 247 246 246 246 246 247 246 246 246 246 248 248
261 262 263 264 265 266 266 266 265 265 264 262 260 259 257 257 256 255 253 252 251 249 249 248 247 246 245 245 245 246 246 246 246 247 247 247 247 246 245 244 245 246 246 246 246 246 246 247 248
261 262 264 265 266 267 267 267 267 266 265 263 261 260 258 257 256 255 254 252 250 249 248 247 246 245 244 245 244 244 244 244 244 245 245 245 245 245 245 244 244 245 246 246 246 246 246 248 249
263 264 265 266 267 268 268 269 269 267 266 264 263 261 258 257 256 255 254 253 251 249 247 246 244 243 243 243 243 243 242 241 242 244 243 243 243 243 243 243 244 245 246 246 247 247 247 248 249
263 265 267 268 269 269 270 271 270 268 267 266 264 262 259 257 256 255 254 253 251 249 247 245 243 242 241 241 241 240 240 240 240 240 241 241 242 241 242 242 243 244 245 246 247 247 248 249 250
264 266 267 269 270 271 272 272 271 270 269 267 265 262 260 258 256 255 253 252 250 248 247 245 243 241 240 239 239 238 237 239 239 237 238 239 241 241 241 242 243 245 245 246 247 247 248 249 250
265 267 269 271 272 273 273 272 271 271 270 268 265 263 260 258 257 255 254 252 251 249 247 245 243 241 240 239 238 237 237 238 238 238 237 238 241 242 243 242 243 245 245 246 247 248 248 249 251
264 266 269 271 273 274 275 274 272 272 270 268 265 263 260 259 257 255 254 252 250 249 247 245 243 241 240 238 238 238 238 237 238 238 237 237 239 241 242 242 244 245 245 245 247 249 250 251 252
264 266 268 271 274 275 275 275 273 272 271 269 266 263 261 259 257 255 252 250 249 248 246 243 242 241 240 238 238 238 238 237 238 238 238 238 238 238 240 242 243 244 245 246 247 249 250 252 252
266 268 269 271 274 276 278 278 276 274 273 271 271 267 263 259 257 255 251 249 247 246 245 242 241 240 239 238 238 238 238 238 238 239 238 238 238 238 239 241 242 243 244 246 248 250 251 253 253
266 267 268 269 271 277 280 280 280 279 279 278 276 275 271 267 261 256 251 249 247 244 242 240 240 239 239 238 237 237 238 238 238 238 237 237 237 238 240 240 241 242 244 246 249 252 252 253 254
264 266 268 268 271 276 282 287 286 286 288 286 283 281 277 273 265 258 252 250 247 242 239 238 237 237 237 237 237 237 236 236 236 236 235 235 236 238 242 243 243 243 243 245 248 251 252 252 254
261 263 265 266 268 275 285 293 297 296 299 303 304 298 287 287 277 263 249 246 243 237 236 234 233 232 233 233 233 234 235 235 235 235 236 236 237 239 241 244 244 244 244 245 247 251 251 253 255
260 260 260 258 265 280 293 305 312 312 318 329 340 345 330 317 293 256 235 232 227 222 223 227 225 227 230 231 231 232 233 235 237 237 237 238 239 241 242 244 245 245 245 246 248 251 253 254 255
244 243 248 261 273 289 299 315 345 354 358 6 19 32 40 51 60 101 157 168 189 201 211 215 218 222 225 228 228 230 232 236 236 236 238 241 242 242 242 243 245 247 247 247 249 250 252 254 256
216 222 236 264 296 325 3 59 60 56 59 62 54 56 59 65 81 106 122 138 149 168 178 193 206 212 217 222 225 227 231 235 237 238 240 242 244 242 242 244 246 247 248 250 250 251 251 254 255
152 147 138 110 69 76 85 87 74 70 64 65 67 65 66 76 83 91 100 121 140 153 165 184 198 203 213 221 225 228 234 237 238 239 241 242 244 243 243 245 247 249 250 250 250 251 252 253 255
97 104 105 88 78 80 84 78 65 67 70 71 70 68 73 86 90 95 98 103 121 138 148 170 183 203 213 218 221 229 235 237 239 243 245 245 244 243 243 245 248 251 251 252 252 253 254 254 256
86 93 91 76 75 80 75 64 60 68 67 65 68 75 80 85 86 94 98 103 110 117 126 141 167 186 201 216 226 233 235 238 243 245 248 248 246 246 248 250 251 250 252 253 254 255 255 256 257
88 85 81 78 79 77 73 71 72 68 63 65 65 70 79 82 84 92 102 110 111 109 111 120 174 222 234 242 246 250 248 248 249 249 250 251 252 252 253 254 254 253 256 257 257 258 257 258 258